Location: Cuiabá
(15.6014°S, 56.0979°W)
Time: 17:20:11
(UTC-04:00)

Hubble Space Telescope - Pass Details

Date: 09 December 2022
Orbit: 529 x 532 km, 28.5° (Epoch: 04 February)

Event Time Altitude Azimuth Distance (km) Brightness Sun altitude
Rises 19:13:09 0° 232° (SW) 2,676 6.1 -14.9°
Reaches altitude 10° 19:16:10 10° 209° (SSW) 1,786 4.3 -15.5°
Maximum altitude 19:18:43 16° 171° (S) 1,461 3.2 -16.1°
Drops below altitude 10° 19:21:15 10° 133° (SE) 1,785 3.3 -16.6°
Enters shadow 19:21:57 - 126° (SE) 1,964 3.4 -16.7°
